User: anonymous   Login
Location: Unspecified
(0.0000°N, 0.0000°E)
Time: 02:51:13
(UTC+00:00)
Language:

Nadezhda 6 - Orbit

View from above orbital plane
View from above orbital plane
View from above satellite
View from above satellite

Ground track
Ground track

The orbit data is extracted from the following two-line orbital elements,

1 26384U 00033A   17147.56359006 +.00000115 +00000-0 +29425-4 0  9996
2 26384 098.0160 213.8823 0016734 094.8971 265.4152 14.66339239903783
Epoch (UTC): 27 May 2017 13:31:34
Eccentricity: 0.0016734
inclination: 98.0160°
perigee height: 661 km
apogee height: 684 km
right ascension of ascending node: 213.8823°
argument of perigee: 94.8971°
revolutions per day: 14.66339239
mean anomaly at epoch: 265.4152°
orbit number at epoch: 90378

The dashed part of the orbit path shows where the satellite is in the earth's shadow,  

DLR